Terminal Aerodrome Forecast
Issued by NWS Denver/Boulder, CO

Home | Current Version | Previous Version | Text Only | Print | Product List | Glossary On
Versions: 1 2 3 4 5 6 7 8 9 10 11 12 13 14 15 16 17 18 19 20 21 22 23 24 25 26 27 28 29 30 31 32 33 34 35 36 37 38 39 40 41 42 43 44 45 46 47 48 49 50
000
FTUS45 KBOU 230525
TAFDEN
TAF
KDEN 230525Z 2306/2412 17012KT P6SM SCT220
     FM230800 22011KT P6SM SCT220
     FM231530 24015G25KT P6SM SCT220
     FM231800 23020G35KT P6SM FEW120 SCT220
     FM232300 25012G25KT P6SM FEW100 BKN150
     FM240300 01014G25KT P6SM VCSH SCT030 OVC060
     FM240500 35018G30KT 4SM -SHRA SCT015 OVC030
      TEMPO 2408/2412 2SM -SHRASN OVC010=

USA.gov is the U.S. government's official web portal to all federal, state and local government web resources and services.